Weather History for KCGS - November, 2012

Change the Weather History Date:

Friday, November 30, 2012

  Actual Average Record
Temperature  
Mean Temperature 40 °F -  
Max Temperature 54 °F 49 °F 70 °F (1991)
Min Temperature 27 °F 32 °F 14 °F (1976)
Degree Days  
Heating Degree Days 24    
Moisture  
Dew Point 31 °F    
Average Humidity 77    
Maximum Humidity 100    
Minimum Humidity 38    
Precipitation  
Precipitation 0.00 in - - ()
Sea Level Pressure  
Sea Level Pressure 30.35 in    
Wind  
Wind Speed 0 mph (ENE)    
Max Wind Speed 6 mph    
Max Gust Speed -    
Visibility 10 miles    
Events      
Averages and records for this station are not official NWS values.
T = Trace of Precipitation, MM = Missing Value Source: NWS Daily Summary

Daily Weather History Graph

Daily Weather History Graph

Search for Another Location

Airport or City:

Trip Planner

Search our weather history database for the weather conditions in past years. The results will help you decide how hot, cold, wet, or windy it might be!

Date:

Astronomy

Nov. 30, 2012 Rise Set
Actual Time 7:06 AM EST 4:45 PM EST
Civil Twilight 6:37 AM EST 5:15 PM EST
Nautical Twilight 6:04 AM EST 5:48 PM EST
Astronomical Twilight 5:32 AM EST 6:20 PM EST
Moon 6:38 PM EST (11/30) 8:37 AM EST (11/30)
Length of Visible Light 10h 37m
Length of Day
9h 38m
Waning Gibbous, 96% of the Moon is Illuminated
Nov 30
Waning Gibbous
Dec 6
Last Quarter
Dec 13
New
Dec 20
First Quarter
Dec 28
Full

Hourly Weather History & Observations

Time (EST) Temp. Dew Point Humidity Pressure Visibility Wind Dir Wind Speed Gust Speed Precip Events Conditions
12:15 AM 31.1 °F 28.2 °F 89% 30.35 in 10.0 mi Calm Calm - N/A   Clear
12:35 AM 30.7 °F 28.2 °F 90% 30.35 in 10.0 mi Calm Calm - N/A   Clear
12:55 AM 30.4 °F 28.0 °F 91% 30.35 in 10.0 mi Calm Calm - N/A   Clear
1:20 AM 30.2 °F 28.8 °F 94% 30.35 in 10.0 mi Calm Calm - N/A   Clear
1:40 AM 30.2 °F 28.4 °F 93% 30.35 in 10.0 mi Calm Calm - N/A   Clear
2:00 AM 30.6 °F 29.7 °F 96% 30.34 in 10.0 mi Calm Calm - N/A   Clear
2:20 AM 29.8 °F 28.0 °F 93% 30.35 in 10.0 mi Calm Calm - N/A   Clear
2:45 AM 30.0 °F 29.3 °F 97% 30.34 in 10.0 mi Calm Calm - N/A   Clear
3:05 AM 30.6 °F 29.3 °F 95% 30.35 in 10.0 mi Calm Calm - N/A   Clear
3:25 AM 30.0 °F 29.1 °F 96% 30.34 in 10.0 mi Calm Calm - N/A   Clear
3:45 AM 29.7 °F 29.1 °F 98% 30.34 in 10.0 mi Calm Calm - N/A   Clear
4:10 AM 28.9 °F 28.8 °F 99% 30.33 in 10.0 mi Calm Calm - N/A   Clear
4:30 AM 29.5 °F 29.1 °F 99% 30.34 in 10.0 mi Calm Calm - N/A   Clear
4:50 AM 28.9 °F 28.8 °F 99% 30.34 in 10.0 mi Calm Calm - N/A   Clear
5:15 AM 28.9 °F 27.9 °F 96% 30.34 in 10.0 mi Calm Calm - N/A   Clear
5:35 AM 28.4 °F 28.0 °F 99% 30.34 in 7.0 mi Calm Calm - N/A   Clear
5:55 AM 28.2 °F 28.2 °F 100% 30.34 in 10.0 mi Calm Calm - N/A   Clear
6:15 AM 28.8 °F 28.6 °F 99% 30.35 in 10.0 mi Calm Calm - N/A   Clear
6:40 AM 27.5 °F 27.5 °F 100% 30.36 in 7.0 mi Calm Calm - N/A   Clear
7:00 AM 27.9 °F 27.9 °F 100% 30.37 in 7.0 mi Calm Calm - N/A   Clear
7:20 AM 27.5 °F 27.3 °F 99% 30.38 in 7.0 mi Calm Calm - N/A   Clear
7:40 AM 28.2 °F 28.2 °F 100% 30.38 in 7.0 mi Calm Calm - N/A   Clear
8:05 AM 30.7 °F 30.0 °F 97% 30.38 in 7.0 mi Calm Calm - N/A   Clear
8:25 AM 32.0 °F 30.9 °F 96% 30.38 in 10.0 mi Calm Calm - N/A   Clear
8:45 AM 33.4 °F 31.6 °F 93% 30.38 in 10.0 mi Calm Calm - N/A   Clear
9:05 AM 35.4 °F 32.0 °F 87% 30.38 in 10.0 mi Calm Calm - N/A   Clear
9:30 AM 38.8 °F 32.9 °F 79% 30.38 in 10.0 mi Calm Calm - N/A   Clear
9:50 AM 42.3 °F 33.6 °F 71% 30.38 in 10.0 mi Calm Calm - N/A   Clear
10:10 AM 43.3 °F 33.1 °F 67% 30.38 in 10.0 mi Calm Calm - N/A   Clear
10:30 AM 45.0 °F 34.0 °F 65% 30.38 in 10.0 mi Calm Calm - N/A   Clear
10:55 AM 47.1 °F 33.8 °F 60% 30.37 in 10.0 mi Calm Calm - N/A   Clear
11:15 AM 50.0 °F 32.7 °F 52% 30.37 in 10.0 mi Calm Calm - N/A   Clear
11:35 AM 50.9 °F 31.8 °F 48% 30.36 in 10.0 mi NE 5.8 mph - N/A   Clear
11:55 AM 50.9 °F 31.6 °F 48% 30.35 in 10.0 mi Calm Calm - N/A   Mostly Cloudy
12:20 PM 51.8 °F 32.0 °F 47% 30.34 in 10.0 mi ESE 3.5 mph - N/A   Mostly Cloudy
12:40 PM 52.7 °F 32.4 °F 46% 30.34 in 10.0 mi Calm Calm - N/A   Scattered Clouds
1:20 PM 52.3 °F 32.2 °F 46% 30.33 in 10.0 mi NNE 3.5 mph - N/A   Scattered Clouds
1:45 PM 53.1 °F 32.4 °F 45% 30.33 in 10.0 mi Calm Calm - N/A   Mostly Cloudy
2:05 PM 53.8 °F 31.3 °F 42% 30.32 in 10.0 mi NNE 3.5 mph - N/A   Scattered Clouds
2:25 PM 54.0 °F 30.6 °F 41% 30.31 in 10.0 mi NNE 4.6 mph - N/A   Scattered Clouds
2:45 PM 54.5 °F 31.3 °F 41% 30.31 in 10.0 mi NE 4.6 mph - N/A   Scattered Clouds
3:05 PM 54.5 °F 29.8 °F 39% 30.32 in 10.0 mi East 4.6 mph - N/A   Scattered Clouds
3:30 PM 54.5 °F 29.5 °F 38% 30.32 in 10.0 mi ENE 4.6 mph - N/A   Scattered Clouds
3:50 PM 54.3 °F 29.8 °F 39% 30.32 in 10.0 mi ENE 3.5 mph - N/A   Scattered Clouds
4:10 PM 52.9 °F 30.0 °F 42% 30.32 in 10.0 mi East 3.5 mph - N/A   Scattered Clouds
4:30 PM 51.8 °F 30.7 °F 45% 30.32 in 10.0 mi East 4.6 mph - N/A   Clear
4:55 PM 50.0 °F 31.6 °F 49% 30.32 in 10.0 mi Calm Calm - N/A   Clear
5:15 PM 47.5 °F 32.0 °F 55% 30.32 in 10.0 mi Calm Calm - N/A   Clear
5:30 PM 45.5 °F 32.0 °F 59% 30.33 in 10.0 mi Calm Calm - N/A   Clear
5:55 PM 43.3 °F 32.0 °F 64% 30.33 in 10.0 mi Calm Calm - N/A   Clear
6:20 PM 41.2 °F 33.1 °F 73% 30.34 in 10.0 mi Calm Calm - N/A   Clear
6:40 PM 41.0 °F 36.1 °F 83% 30.34 in 10.0 mi Calm Calm - N/A   Clear
7:00 PM 40.1 °F 37.2 °F 89% 30.35 in 10.0 mi Calm Calm - N/A   Clear
7:20 PM 39.6 °F 33.4 °F 79% 30.35 in 10.0 mi Calm Calm - N/A   Clear
7:45 PM 37.9 °F 32.9 °F 82% 30.36 in 10.0 mi Calm Calm - N/A   Clear
8:05 PM 36.9 °F 32.4 °F 84% 30.36 in 10.0 mi Calm Calm - N/A   Clear
8:25 PM 36.7 °F 33.8 °F 89% 30.36 in 10.0 mi Calm Calm - N/A   Clear
8:45 PM 36.3 °F 32.7 °F 87% 30.36 in 10.0 mi Calm Calm - N/A   Clear
9:10 PM 36.1 °F 33.3 °F 89% 30.36 in 10.0 mi Calm Calm - N/A   Clear
9:30 PM 36.5 °F 33.8 °F 90% 30.36 in 10.0 mi Calm Calm - N/A   Clear
9:50 PM 35.6 °F 32.9 °F 90% 30.36 in 10.0 mi Calm Calm - N/A   Clear
10:10 PM 36.3 °F 33.4 °F 89% 30.36 in 10.0 mi Calm Calm - N/A   Clear
10:35 PM 37.0 °F 34.0 °F 89% 30.35 in 10.0 mi Calm Calm - N/A   Clear
10:55 PM 36.7 °F 33.8 °F 89% 30.36 in 10.0 mi Calm Calm - N/A   Clear
11:15 PM 36.5 °F 34.9 °F 94% 30.36 in 10.0 mi Calm Calm - N/A   Clear
11:40 PM 36.0 °F 34.0 °F 93% 30.36 in 10.0 mi Calm Calm - N/A   Clear